Starlink 31535

operational
NORAD ID: 59504 Int'l Des: 2024-071 Owner: SPXS Country: US Constellation: starlink
LEOCIRCULAR

About Starlink 31535

Description loading...

Live Position

Loading 3D Globe...

Upcoming Passes

Altitude History

Altitude vs Time

uPlot chart will show altitude changes over time

Two-Line Element Set

1 59504U 24071W 25305.51795306 -.00002074 00000-0 -65874-4 0 9997
2 59504 43.0016 351.3509 0001509 240.1754 119.8947 15.27568930 88510
Epoch: Nov 1, 2025 • Age: 20 hours

Current Status

Altitude 482.4 km
Velocity 7.63 km/s
Sub-Earth Point 0.62°N, 3.58°E
Launch Date Apr 13, 2024
Age 1.5 years
Type internet

Technical Details

Classification Payload
Mass 730.00 kg
Dry Mass 700.00 kg
Total Mass 730.00 kg
Length 0.30 m
Diameter 4.10 m
Span 29.00 m
Shape Box + pan
Manufacturer SPXS
Bus Type Starlink V2M
Phase Status In Orbit
Owner/State SPXS/US

Large Constellations

Loading constellations...